EW8138 Weather Reports


time (UTC)temp
C
wind
direction
speed
KPH
gust
KPH
rain 1hr
cm
rain 24hr
cm
rain mn
cm
humidity
%
barometer
mb
20260903043046 26 223 0.0 0.0 0.00 0.00 0.00 81 1012.2
20260903041601 26 227 0.0 0.0 0.00 0.00 0.00 81 1012.1
20260903040053 26 212 0.0 0.0 0.00 0.00 0.00 81 1011.9
20260903034541 26 220 0.0 1.6 0.00 0.00 0.00 81 1011.9
20260903033041 26 218 0.0 0.0 0.00 0.00 0.00 81 1012.0
20260903031539 26 221 0.0 0.0 0.00 0.00 0.00 81 1012.1
20260903030043 26 212 0.0 0.0 0.00 0.00 0.00 81 1012.4
20260903024540 26 215 0.0 0.0 0.00 0.00 0.00 82 1012.5
20260903023038 26 218 0.0 0.0 0.00 0.00 0.00 83 1012.6
20260903021540 26 219 0.0 0.0 0.00 0.00 0.00 82 1012.6
20260903020036 26 219 0.0 0.0 0.00 0.00 0.00 82 1012.6
20260903014537 26 219 0.0 0.0 0.00 0.00 0.00 81 1012.6
20260903013039 26 221 0.0 0.0 0.00 0.00 0.00 80 1012.5
20260903011545 26 213 0.0 0.0 0.00 0.00 0.00 80 1012.4
20260903010041 27 215 0.0 0.0 0.00 0.00 0.00 79 1012.4
20260903004535 27 216 0.0 0.0 0.00 0.00 0.00 78 1012.3
20260903003035 27 215 0.0 0.0 0.00 0.00 0.00 76 1012.1
20260903001554 28 217 0.0 0.0 0.00 0.00 0.00 74 1012.1
20260903000032 28 217 0.0 0.0 0.00 0.00 0.00 72 1012.2
20260902234535 29 217 0.0 0.0 0.00 0.00 0.00 70 1012.1
20260902233033 30 217 0.0 0.0 0.00 0.00 0.00 68 1012.1
20260902231532 30 221 0.0 0.0 0.00 0.00 0.00 67 1012.1
20260902230030 31 227 0.0 0.0 0.00 0.00 0.00 64 1012.0
20260902224532 31 216 0.0 1.6 0.00 0.00 0.00 64 1012.0
20260902223031 31 221 0.0 1.6 0.00 0.00 0.00 62 1012.1
20260902221535 31 221 0.0 8.0 0.00 0.00 0.00 62 1012.2
20260902220028 31 227 0.0 8.0 0.00 0.00 0.00 63 1012.2
20260902214528 31 229 0.0 24.1 0.00 0.00 0.00 60 1012.1
20260902213025 32 212 0.0 9.7 0.00 0.00 0.00 61 1012.2
20260902211526 32 219 0.0 6.4 0.00 0.00 0.00 63 1012.2
20260902210023 32 221 0.0 16.1 0.00 0.00 0.00 61 1012.3
20260902204522 32 188 0.0 4.8 0.00 0.00 0.00 67 1012.4
20260902203019 32 228 0.0 8.0 0.00 0.00 0.00 62 1012.6
20260902201518 32 252 0.0 14.5 0.00 0.00 0.00 61 1012.7
20260902200017 32 273 0.0 4.8 0.00 0.00 0.00 59 1012.8
20260902194515 33 275 0.0 1.6 0.00 0.00 0.00 61 1013.0
20260902193013 33 223 0.0 0.0 0.00 0.00 0.00 59 1013.2
20260902191512 33 230 0.0 1.6 0.00 0.00 0.00 61 1013.3
20260902190011 32 219 0.0 14.5 0.00 0.00 0.00 61 1013.5
20260902184511 33 216 0.0 0.0 0.00 0.00 0.00 64 1013.6
20260902183010 33 230 0.0 0.0 0.00 0.00 0.00 63 1013.7
20260902181507 32 224 0.0 0.0 0.00 0.00 0.00 63 1013.9
20260902180013 32 225 0.0 4.8 0.00 0.00 0.00 61 1014.1
20260902174504 32 245 0.0 1.6 0.00 0.00 0.00 63 1014.2
20260902173006 32 223 0.0 4.8 0.00 0.00 0.00 64 1014.4
20260902171619 32 229 0.0 1.6 0.00 0.00 0.00 67 1014.7
20260902170057 31 220 0.0 0.0 0.00 0.00 0.00 70 1014.6
20260902164555 31 222 0.0 9.7 0.00 0.05 0.00 70 1014.8
20260902163053 31 217 0.0 3.2 0.00 0.05 0.00 72 1014.9
20260902161550 30 213 0.0 0.0 0.00 0.05 0.00 75 1014.8
20260902160048 30 212 0.0 0.0 0.00 0.05 0.00 75 1014.9
20260902154544 30 202 0.0 1.6 0.00 0.05 0.00 78 1014.9
20260902153041 29 219 0.0 0.0 0.00 0.05 0.00 80 1014.9
20260902151538 28 195 0.0 1.6 0.00 0.05 0.00 80 1015.0
20260902150034 28 213 0.0 0.0 0.00 0.84 0.00 80 1015.0
20260902144532 28 202 0.0 0.0 0.00 0.84 0.00 79 1014.9
20260902143026 27 218 0.0 0.0 0.00 0.84 0.00 79 1014.8
20260902141530 26 221 0.0 0.0 0.00 0.84 0.00 82 1014.8
20260902140017 26 207 0.0 0.0 0.00 0.86 0.00 88 1014.8
20260902134522 25 217 0.0 0.0 0.00 0.86 0.00 92 1014.8
20260902133012 24 217 0.0 0.0 0.00 0.86 0.00 93 1014.8
20260902131510 23 218 0.0 0.0 0.00 0.86 0.00 94 1014.9
20260902130010 23 218 0.0 0.0 0.00 0.86 0.00 95 1014.9
20260902124510 22 218 0.0 0.0 0.00 0.86 0.00 95 1014.7
20260902123005 22 218 0.0 0.0 0.00 0.86 0.00 95 1014.6
20260902121502 22 219 0.0 0.0 0.00 0.86 0.00 95 1014.7
20260902120100 21 219 0.0 0.0 0.00 0.86 0.00 95 1014.7
20260902114556 21 219 0.0 0.0 0.00 0.86 0.00 94 1014.7
20260902113052 21 219 0.0 0.0 0.00 0.86 0.00 94 1014.5
20260902111552 21 219 0.0 0.0 0.00 0.86 0.00 94 1014.4
20260902110049 21 219 0.0 0.0 0.00 0.86 0.00 94 1014.3
20260902104547 21 219 0.0 0.0 0.00 0.86 0.00 94 1014.1
20260902103046 21 219 0.0 0.0 0.00 0.86 0.00 94 1014.2
20260902101546 21 219 0.0 0.0 0.00 0.86 0.00 93 1014.0
20260902100046 21 219 0.0 0.0 0.00 0.86 0.00 94 1014.1
20260902094546 21 219 0.0 0.0 0.00 0.86 0.00 94 1014.0
20260902093044 21 219 0.0 0.0 0.00 0.86 0.00 93 1014.1
20260902091547 21 219 0.0 0.0 0.00 0.86 0.00 93 1014.1
20260902090043 21 219 0.0 0.0 0.00 0.86 0.00 92 1014.1
20260902084542 21 219 0.0 0.0 0.00 0.86 0.00 92 1014.0
20260902083040 21 219 0.0 0.0 0.00 0.86 0.00 91 1013.9
20260902081539 21 219 0.0 0.0 0.00 0.86 0.00 91 1013.8
20260902080039 22 219 0.0 0.0 0.00 0.86 0.00 89 1013.8
20260902074549 22 219 0.0 0.0 0.00 0.86 0.00 89 1013.7
20260902073033 22 219 0.0 0.0 0.00 0.86 0.00 88 1013.7
20260902071531 22 219 0.0 0.0 0.00 0.86 0.00 88 1013.7
20260902070029 23 219 0.0 0.0 0.00 0.86 0.00 88 1013.6
20260902064528 23 219 0.0 0.0 0.00 0.86 0.00 88 1013.7
20260902063048 23 219 0.0 0.0 0.00 0.86 0.00 87 1013.9
20260902061522 23 219 0.0 0.0 0.00 0.86 0.00 86 1013.9
20260902060020 24 219 0.0 0.0 0.00 0.86 0.00 85 1013.9
20260902054519 25 219 0.0 0.0 0.00 0.86 0.00 85 1013.9
20260902053014 25 219 0.0 0.0 0.00 0.86 0.00 85 1013.7
20260902051513 25 219 0.0 0.0 0.00 0.86 0.00 85 1013.5
20260902050010 25 213 0.0 0.0 0.00 0.86 0.00 85 1013.2
20260902044513 25 219 0.0 0.0 0.00 0.86 0.00 85 1013.2